• In Czech Republic
  • List of Countries
  • For 7 days
  • Water Temperature
  • Satellite Maps
  • Weather Map
  • Weather Widgets
  • user-avatar
    Login

    Hourly Weather Trzemeszno

    Today, 19 November, Sunday

    Time Temperature Precipitation Wind Pressure Humidity
    00:00 +1°C° 0 mm 6 mps 746 mmHg 82%
    01:00 +1°C° 0 mm 6 mps 745 mmHg 84%
    02:00 +1°C° 0 mm 6 mps 745 mmHg 84%
    03:00 +1°C° 0 mm 6 mps 745 mmHg 84%
    04:00 +1°C° 0 mm 6 mps 745 mmHg 85%
    05:00 +1°C° 0 mm 6 mps 745 mmHg 84%
    06:00 +1°C° 0 mm 6 mps 745 mmHg 84%
    07:00 +1°C° 0 mm 5 mps 744 mmHg 84%
    08:00 +1°C° 0 mm 6 mps 744 mmHg 82%
    09:00 +1°C° 0 mm 6 mps 744 mmHg 81%
    10:00 0°C° 0 mm 7 mps 744 mmHg 80%
    11:00 +2°C° 0.1 mm 7 mps 744 mmHg 79%
    12:00 +2°C° 0.1 mm 7 mps 744 mmHg 78%
    13:00 +2°C° 0 mm 7 mps 743 mmHg 77%
    14:00 +2°C° 0.4 mm 7 mps 743 mmHg 77%
    15:00 +2°C° 0.4 mm 7 mps 743 mmHg 78%
    16:00 +1°C° 0.4 mm 8 mps 743 mmHg 79%
    17:00 +2°C° 0.2 mm 7 mps 742 mmHg 80%
    18:00 +2°C° 0.2 mm 7 mps 742 mmHg 80%
    19:00 +1°C° 0.2 mm 6 mps 742 mmHg 81%
    20:00 +1°C° 0.1 mm 6 mps 742 mmHg 80%
    21:00 +1°C° 0.1 mm 6 mps 742 mmHg 79%
    22:00 -1°C° 0.1 mm 6 mps 742 mmHg 78%
    23:00 0°C° 0.2 mm 7 mps 743 mmHg 79%

    Tomorrow, 20 November, Monday

    Time Temperature Precipitation Wind Pressure Humidity
    00:00 0°C° 0.2 mm 7 mps 743 mmHg 80%
    01:00 0°C° 0.2 mm 8 mps 744 mmHg 81%
    02:00 +1°C° 0.7 mm 8 mps 744 mmHg 81%
    03:00 +1°C° 0.7 mm 8 mps 745 mmHg 81%
    04:00 +1°C° 0.7 mm 9 mps 745 mmHg 81%
    05:00 0°C° 0.1 mm 8 mps 746 mmHg 80%
    06:00 0°C° 0.1 mm 7 mps 746 mmHg 80%
    07:00 -1°C° 0.1 mm 7 mps 747 mmHg 79%
    08:00 -1°C° 0 mm 6 mps 748 mmHg 78%
    09:00 +1°C° 0 mm 6 mps 748 mmHg 76%
    10:00 +1°C° 0 mm 6 mps 749 mmHg 74%
    11:00 +1°C° 0 mm 6 mps 749 mmHg 73%
    12:00 +2°C° 0 mm 6 mps 749 mmHg 73%
    13:00 +2°C° 0 mm 5 mps 749 mmHg 72%
    14:00 +2°C° 0.1 mm 5 mps 749 mmHg 75%
    15:00 +1°C° 0.1 mm 4 mps 749 mmHg 79%
    16:00 +1°C° 0.1 mm 4 mps 749 mmHg 82%
    17:00 +2°C° 0 mm 3 mps 749 mmHg 84%
    18:00 +2°C° 0 mm 3 mps 749 mmHg 87%
    19:00 +1°C° 0 mm 3 mps 749 mmHg 89%
    20:00 +1°C° 0 mm 3 mps 749 mmHg 90%
    21:00 +2°C° 0 mm 2 mps 749 mmHg 91%
    22:00 +2°C° 0 mm 2 mps 749 mmHg 93%
    23:00 +2°C° 0 mm 2 mps 749 mmHg 94%

    Day after tomorrow, 21 November, Tuesday

    Time Temperature Precipitation Wind Pressure Humidity
    00:00 +2°C° 0 mm 1 mps 749 mmHg 94%
    01:00 +2°C° 0 mm 1 mps 749 mmHg 95%
    02:00 +2°C° 0 mm 1 mps 748 mmHg 95%
    03:00 +2°C° 0 mm 1 mps 748 mmHg 95%
    04:00 +2°C° 0 mm 1 mps 747 mmHg 95%
    05:00 +2°C° 0 mm 1 mps 747 mmHg 95%
    06:00 +2°C° 0 mm 1 mps 747 mmHg 95%
    07:00 +2°C° 0 mm 1 mps 747 mmHg 95%
    08:00 +3°C° 0 mm 1 mps 748 mmHg 93%
    09:00 +3°C° 0 mm 1 mps 748 mmHg 90%
    10:00 +4°C° 0 mm 1 mps 748 mmHg 88%
    11:00 +4°C° 0 mm 1 mps 748 mmHg 85%
    12:00 +5°C° 0 mm 1 mps 748 mmHg 82%
    13:00 +5°C° 0 mm 1 mps 748 mmHg 80%
    14:00 +5°C° 0 mm 1 mps 749 mmHg 82%
    15:00 +4°C° 0 mm 1 mps 749 mmHg 84%
    16:00 +4°C° 0 mm 1 mps 749 mmHg 87%
    17:00 +3°C° 0 mm 1 mps 750 mmHg 88%
    18:00 +3°C° 0 mm 1 mps 750 mmHg 89%
    19:00 +2°C° 0 mm 1 mps 750 mmHg 90%
    20:00 +2°C° 0 mm 1 mps 751 mmHg 90%
    21:00 +2°C° 0 mm 1 mps 751 mmHg 90%
    22:00 +2°C° 0 mm 1 mps 752 mmHg 90%
    23:00 +2°C° 0 mm 1 mps 752 mmHg 90%

    22 November, Wednesday

    Time Temperature Precipitation Wind Pressure Humidity
    00:00 +1°C° 0 mm 1 mps 752 mmHg 91%
    01:00 +1°C° 0 mm 1 mps 752 mmHg 91%
    02:00 -1°C° 0 mm 2 mps 752 mmHg 91%
    03:00 -1°C° 0 mm 2 mps 752 mmHg 91%
    04:00 -1°C° 0 mm 3 mps 752 mmHg 91%
    05:00 0°C° 0.1 mm 3 mps 752 mmHg 90%
    06:00 0°C° 0.1 mm 3 mps 752 mmHg 88%
    07:00 0°C° 0.1 mm 4 mps 752 mmHg 86%
    08:00 0°C° 0.2 mm 4 mps 751 mmHg 85%
    09:00 0°C° 0.2 mm 5 mps 751 mmHg 85%
    10:00 +1°C° 0.2 mm 6 mps 751 mmHg 84%
    11:00 +1°C° 0 mm 5 mps 751 mmHg 85%
    12:00 +2°C° 0 mm 5 mps 750 mmHg 86%
    13:00 +3°C° 0 mm 4 mps 750 mmHg 87%
    14:00 +3°C° 0 mm 4 mps 750 mmHg 89%
    15:00 +4°C° 0 mm 3 mps 750 mmHg 91%
    16:00 +4°C° 0 mm 3 mps 750 mmHg 93%
    17:00 +4°C° 0 mm 3 mps 750 mmHg 93%
    18:00 +4°C° 0 mm 3 mps 750 mmHg 94%
    19:00 +4°C° 0 mm 3 mps 750 mmHg 94%
    20:00 +4°C° 0 mm 3 mps 751 mmHg 94%
    21:00 +3°C° 0 mm 3 mps 751 mmHg 94%
    22:00 +3°C° 0 mm 3 mps 751 mmHg 93%
    23:00 +3°C° 0 mm 3 mps 751 mmHg 93%

    23 November, Thursday

    Time Temperature Precipitation Wind Pressure Humidity
    00:00 +3°C° 0 mm 3 mps 751 mmHg 93%
    01:00 +2°C° 0 mm 3 mps 751 mmHg 92%
    02:00 +2°C° 0 mm 3 mps 751 mmHg 91%
    03:00 +2°C° 0 mm 3 mps 751 mmHg 90%
    04:00 +1°C° 0 mm 4 mps 751 mmHg 89%
    05:00 +1°C° 0 mm 4 mps 751 mmHg 87%
    06:00 +1°C° 0 mm 4 mps 751 mmHg 86%
    07:00 +3°C° 0 mm 4 mps 751 mmHg 84%
    08:00 +4°C° 0 mm 4 mps 751 mmHg 80%
    09:00 +5°C° 0 mm 5 mps 752 mmHg 76%
    10:00 +6°C° 0 mm 5 mps 752 mmHg 71%
    11:00 +7°C° 0 mm 5 mps 752 mmHg 69%
    12:00 +8°C° 0 mm 5 mps 752 mmHg 67%
    13:00 +9°C° 0 mm 5 mps 752 mmHg 65%
    14:00 +8°C° 0 mm 5 mps 752 mmHg 70%
    15:00 +7°C° 0 mm 4 mps 753 mmHg 74%
    16:00 +7°C° 0 mm 4 mps 753 mmHg 78%
    17:00 +6°C° 0 mm 4 mps 753 mmHg 81%
    18:00 +6°C° 0 mm 4 mps 754 mmHg 83%
    19:00 +6°C° 0 mm 4 mps 754 mmHg 86%
    20:00 +7°C° 0 mm 3 mps 754 mmHg 87%
    21:00 +7°C° 0 mm 3 mps 755 mmHg 88%
    22:00 +7°C° 0 mm 3 mps 755 mmHg 89%
    23:00 +7°C° 0 mm 3 mps 755 mmHg 89%

    24 November, Friday

    Time Temperature Precipitation Wind Pressure Humidity
    00:00 +5°C° 0 mm 3 mps 755 mmHg 90%
    01:00 +5°C° 0 mm 3 mps 755 mmHg 90%
    02:00 +5°C° 0 mm 3 mps 755 mmHg 89%
    03:00 +5°C° 0 mm 3 mps 755 mmHg 89%
    04:00 +5°C° 0 mm 3 mps 755 mmHg 88%
    05:00 +5°C° 0 mm 3 mps 755 mmHg 88%
    06:00 +5°C° 0 mm 3 mps 755 mmHg 87%
    07:00 +5°C° 0 mm 3 mps 755 mmHg 86%
    08:00 +7°C° 0 mm 3 mps 756 mmHg 82%
    09:00 +8°C° 0 mm 3 mps 756 mmHg 78%
    10:00 +8°C° 0 mm 3 mps 756 mmHg 74%
    11:00 +9°C° 0 mm 3 mps 756 mmHg 71%
    12:00 +10°C° 0 mm 3 mps 756 mmHg 68%
    13:00 +10°C° 0 mm 3 mps 756 mmHg 66%
    14:00 +10°C° 0 mm 3 mps 756 mmHg 69%
    15:00 +9°C° 0 mm 3 mps 756 mmHg 72%
    16:00 +8°C° 0 mm 2 mps 756 mmHg 75%
    17:00 +8°C° 0 mm 2 mps 756 mmHg 75%
    18:00 +8°C° 0 mm 2 mps 756 mmHg 75%
    19:00 +7°C° 0 mm 2 mps 756 mmHg 75%
    20:00 +7°C° 0 mm 2 mps 756 mmHg 75%
    21:00 +7°C° 0 mm 2 mps 756 mmHg 74%
    22:00 +7°C° 0 mm 2 mps 757 mmHg 74%
    23:00 +6°C° 0 mm 2 mps 756 mmHg 75%
    Show more